| time (UTC) | temp F | wind direction | speed knots | gust knots | rain 1hr in | rain 24hr in | rain mn in | humidity % | barometer mb |
| 20260507065231 | 51 | 5 | 1.7 | 5.2 | 0.00 | 0.04 | 0.00 | 87 | 1015.5 |
| 20260507064230 | 51 | 19 | 3.5 | 5.2 | 0.00 | 0.04 | 0.00 | 87 | 1015.5 |
| 20260507063230 | 51 | 26 | 2.6 | 4.3 | 0.00 | 0.04 | 0.00 | 87 | 1015.5 |
| 20260507062246 | 51 | 36 | 0.9 | 3.5 | 0.00 | 0.04 | 0.00 | 87 | 1015.5 |
| 20260507061226 | 51 | 15 | 1.7 | 5.2 | 0.00 | 0.04 | 0.00 | 88 | 1015.4 |
| 20260507060255 | 51 | 5 | 2.6 | 4.3 | 0.00 | 0.04 | 0.00 | 89 | 1015.4 |
| 20260507055251 | 50 | 33 | 2.6 | 3.5 | 0.00 | 0.04 | 0.00 | 89 | 1015.3 |
| 20260507054228 | 50 | 32 | 2.6 | 3.5 | 0.00 | 0.04 | 0.00 | 90 | 1015.0 |
| 20260507053238 | 50 | 15 | 1.7 | 3.5 | 0.00 | 0.04 | 0.00 | 91 | 1015.1 |
| 20260507052249 | 50 | 12 | 0.9 | 2.6 | 0.00 | 0.04 | 0.00 | 91 | 1015.0 |
| 20260507051239 | 50 | 20 | 0.0 | 1.7 | 0.00 | 0.04 | 0.00 | 91 | 1014.8 |
| 20260507050240 | 49 | 20 | 0.0 | 0.0 | 0.00 | 0.04 | 0.00 | 91 | 1014.8 |
| 20260507045239 | 49 | 20 | 0.0 | 0.0 | 0.00 | 0.04 | 0.00 | 91 | 1014.7 |
| 20260507044238 | 50 | 20 | 0.0 | 0.9 | 0.00 | 0.04 | 0.00 | 91 | 1014.6 |
| 20260507043247 | 50 | 20 | 0.0 | 0.9 | 0.00 | 0.04 | 0.00 | 91 | 1014.5 |
| 20260507042259 | 50 | 20 | 0.0 | 0.9 | 0.00 | 0.04 | 0.00 | 90 | 1014.4 |
| 20260507041239 | 50 | 20 | 0.0 | 1.7 | 0.00 | 0.04 | 0.00 | 90 | 1014.4 |
| 20260507040251 | 50 | 20 | 0.0 | 0.9 | 0.00 | 0.04 | 0.00 | 90 | 1014.3 |
| 20260507035228 | 50 | 20 | 0.0 | 0.9 | 0.00 | 0.04 | 0.00 | 90 | 1014.2 |
| 20260507034258 | 50 | 20 | 0.0 | 0.9 | 0.00 | 0.04 | 0.00 | 89 | 1014.1 |
| 20260507033239 | 50 | 20 | 0.0 | 0.0 | 0.00 | 0.04 | 0.00 | 89 | 1014.1 |
| 20260507032259 | 50 | 20 | 0.0 | 0.0 | 0.00 | 0.04 | 0.00 | 89 | 1014.1 |
| 20260507031244 | 50 | 20 | 0.0 | 0.0 | 0.00 | 0.04 | 0.00 | 89 | 1014.1 |
| 20260507030314 | 50 | 20 | 0.0 | 0.0 | 0.00 | 0.04 | 0.00 | 88 | 1014.0 |
| 20260507025254 | 50 | 20 | 0.0 | 0.9 | 0.00 | 0.04 | 0.00 | 88 | 1014.0 |
| 20260507024235 | 50 | 20 | 0.0 | 0.9 | 0.00 | 0.04 | 0.00 | 88 | 1013.9 |
| 20260507023242 | 50 | 20 | 0.0 | 0.9 | 0.00 | 0.04 | 0.00 | 87 | 1013.9 |
| 20260507022252 | 50 | 20 | 0.0 | 0.0 | 0.00 | 0.04 | 0.00 | 88 | 1013.9 |
| 20260507021236 | 50 | 20 | 0.0 | 0.0 | 0.00 | 0.04 | 0.00 | 87 | 1013.8 |
| 20260507020244 | 50 | 20 | 0.0 | 0.9 | 0.00 | 0.04 | 0.00 | 87 | 1013.8 |
| 20260507015245 | 50 | 20 | 0.0 | 0.9 | 0.00 | 0.04 | 0.00 | 87 | 1013.7 |
| 20260507014244 | 51 | 20 | 0.0 | 0.9 | 0.00 | 0.04 | 0.00 | 86 | 1013.6 |
| 20260507013253 | 51 | 20 | 0.0 | 0.9 | 0.00 | 0.04 | 0.00 | 85 | 1013.7 |
| 20260507012245 | 51 | 20 | 0.0 | 0.9 | 0.00 | 0.04 | 0.00 | 85 | 1013.7 |
| 20260507011229 | 51 | 20 | 0.0 | 0.0 | 0.00 | 0.04 | 0.00 | 84 | 1013.6 |
| 20260507010231 | 51 | 20 | 0.0 | 0.0 | 0.00 | 0.04 | 0.00 | 83 | 1013.6 |
| 20260507005300 | 51 | 20 | 0.0 | 0.9 | 0.00 | 0.04 | 0.00 | 82 | 1013.5 |
| 20260507004240 | 51 | 20 | 0.0 | 0.9 | 0.00 | 0.04 | 0.00 | 82 | 1013.7 |
| 20260507003251 | 51 | 20 | 0.0 | 0.9 | 0.00 | 0.04 | 0.00 | 81 | 1013.7 |
| 20260507002244 | 51 | 20 | 0.0 | 0.0 | 0.00 | 0.04 | 0.00 | 79 | 1013.5 |
| 20260507001228 | 51 | 20 | 0.0 | 1.7 | 0.00 | 0.04 | 0.00 | 79 | 1013.4 |
| 20260507000236 | 51 | 355 | 0.9 | 2.6 | 0.00 | 0.04 | 0.00 | 79 | 1013.5 |
| 20260506235234 | 51 | 360 | 0.9 | 1.7 | 0.00 | 0.04 | 0.00 | 79 | 1013.3 |
| 20260506234234 | 51 | 360 | 0.0 | 1.7 | 0.00 | 0.04 | 0.00 | 78 | 1013.4 |
| 20260506233229 | 51 | 360 | 0.0 | 1.7 | 0.00 | 0.04 | 0.00 | 78 | 1013.3 |
| 20260506232309 | 51 | 360 | 0.0 | 1.7 | 0.00 | 0.04 | 0.00 | 78 | 1013.2 |
| 20260506231230 | 51 | 355 | 0.9 | 2.6 | 0.00 | 0.04 | 0.00 | 78 | 1013.2 |
| 20260506230232 | 52 | 360 | 0.9 | 1.7 | 0.00 | 0.04 | 0.00 | 77 | 1013.1 |
| 20260506225232 | 52 | 20 | 0.0 | 0.9 | 0.00 | 0.04 | 0.00 | 77 | 1012.9 |
| 20260506224302 | 52 | 20 | 0.9 | 3.5 | 0.00 | 0.04 | 0.00 | 77 | 1012.9 |
| 20260506223240 | 52 | 14 | 0.9 | 2.6 | 0.00 | 0.04 | 0.00 | 77 | 1012.8 |
| 20260506222305 | 52 | 340 | 0.9 | 2.6 | 0.00 | 0.04 | 0.00 | 78 | 1012.9 |
| 20260506221302 | 52 | 13 | 1.7 | 2.6 | 0.00 | 0.04 | 0.00 | 78 | 1012.7 |
| 20260506220251 | 52 | 360 | 0.9 | 3.5 | 0.00 | 0.04 | 0.00 | 77 | 1012.8 |
| 20260506215230 | 52 | 26 | 0.9 | 2.6 | 0.00 | 0.04 | 0.01 | 77 | 1012.7 |
| 20260506214232 | 52 | 30 | 0.9 | 2.6 | 0.00 | 0.04 | 0.01 | 77 | 1012.7 |
| 20260506213303 | 52 | 36 | 0.9 | 3.5 | 0.00 | 0.04 | 0.01 | 77 | 1012.7 |
| 20260506212253 | 52 | 32 | 0.9 | 3.5 | 0.00 | 0.04 | 0.01 | 77 | 1012.7 |
| 20260506211246 | 52 | 39 | 1.7 | 4.3 | 0.00 | 0.04 | 0.01 | 77 | 1012.6 |
| 20260506210228 | 52 | 65 | 1.7 | 3.5 | 0.00 | 0.04 | 0.01 | 77 | 1012.6 |
| 20260506205239 | 52 | 18 | 2.6 | 5.2 | 0.00 | 0.04 | 0.01 | 76 | 1012.5 |
| 20260506204249 | 52 | 40 | 2.6 | 7.8 | 0.00 | 0.04 | 0.01 | 76 | 1012.5 |
| 20260506203244 | 52 | 22 | 1.7 | 5.2 | 0.00 | 0.04 | 0.01 | 76 | 1012.3 |
| 20260506202257 | 52 | 84 | 1.7 | 7.0 | 0.00 | 0.04 | 0.01 | 75 | 1012.3 |
| 20260506201242 | 53 | 49 | 1.7 | 7.8 | 0.00 | 0.04 | 0.01 | 75 | 1012.3 |
| 20260506200233 | 53 | 39 | 2.6 | 8.7 | 0.00 | 0.04 | 0.01 | 75 | 1012.2 |
| 20260506195233 | 52 | 42 | 4.3 | 10.4 | 0.00 | 0.04 | 0.01 | 75 | 1012.2 |
| 20260506194301 | 53 | 44 | 3.5 | 8.7 | 0.00 | 0.04 | 0.01 | 76 | 1012.1 |
| 20260506193306 | 52 | 21 | 6.1 | 13.9 | 0.00 | 0.04 | 0.01 | 76 | 1012.0 |
| 20260506192314 | 52 | 40 | 2.6 | 7.8 | 0.00 | 0.04 | 0.01 | 77 | 1011.9 |
| 20260506191243 | 52 | 42 | 3.5 | 5.2 | 0.00 | 0.04 | 0.01 | 77 | 1011.8 |
| 20260506190243 | 53 | 30 | 2.6 | 7.8 | 0.00 | 0.04 | 0.01 | 76 | 1011.6 |
| 20260506185239 | 53 | 36 | 3.5 | 9.6 | 0.00 | 0.04 | 0.01 | 75 | 1011.4 |
| 20260506184250 | 53 | 37 | 2.6 | 7.8 | 0.00 | 0.04 | 0.01 | 75 | 1011.3 |
| 20260506183225 | 53 | 53 | 3.5 | 8.7 | 0.00 | 0.04 | 0.01 | 74 | 1011.3 |
| 20260506182300 | 54 | 19 | 2.6 | 11.3 | 0.00 | 0.04 | 0.01 | 73 | 1011.1 |
| 20260506181243 | 54 | 15 | 2.6 | 8.7 | 0.00 | 0.04 | 0.01 | 72 | 1010.9 |
| 20260506180244 | 55 | 38 | 1.7 | 6.1 | 0.00 | 0.04 | 0.01 | 71 | 1010.9 |
| 20260506175246 | 55 | 79 | 1.7 | 6.1 | 0.00 | 0.04 | 0.01 | 70 | 1010.7 |
| 20260506174256 | 55 | 44 | 1.7 | 9.6 | 0.00 | 0.04 | 0.01 | 70 | 1010.6 |
| 20260506173235 | 56 | 87 | 3.5 | 8.7 | 0.00 | 0.04 | 0.01 | 68 | 1010.4 |
| 20260506172247 | 56 | 360 | 3.5 | 8.7 | 0.00 | 0.04 | 0.01 | 68 | 1010.3 |
| 20260506171240 | 56 | 20 | 3.5 | 9.6 | 0.00 | 0.04 | 0.01 | 68 | 1010.2 |
| 20260506170242 | 57 | 33 | 2.6 | 9.6 | 0.00 | 0.04 | 0.01 | 68 | 1010.1 |
| 20260506165238 | 57 | 27 | 3.5 | 11.3 | 0.00 | 0.04 | 0.01 | 67 | 1010.0 |
| 20260506164238 | 58 | 27 | 7.0 | 12.2 | 0.00 | 0.04 | 0.01 | 67 | 1009.9 |
| 20260506163249 | 59 | 35 | 3.5 | 10.4 | 0.00 | 0.04 | 0.01 | 66 | 1009.8 |
| 20260506162306 | 59 | 19 | 5.2 | 10.4 | 0.00 | 0.04 | 0.01 | 66 | 1009.7 |
| 20260506161250 | 59 | 9 | 3.5 | 9.6 | 0.00 | 0.04 | 0.01 | 67 | 1009.6 |
| 20260506160232 | 59 | 360 | 5.2 | 10.4 | 0.00 | 0.04 | 0.01 | 65 | 1009.7 |
| 20260506155230 | 59 | 360 | 6.1 | 9.6 | 0.00 | 0.04 | 0.01 | 65 | 1009.6 |
| 20260506154231 | 60 | 5 | 5.2 | 8.7 | 0.00 | 0.04 | 0.01 | 63 | 1009.6 |
| 20260506153240 | 60 | 24 | 4.3 | 9.6 | 0.00 | 0.04 | 0.01 | 63 | 1009.5 |
| 20260506152251 | 59 | 355 | 4.3 | 9.6 | 0.00 | 0.04 | 0.01 | 63 | 1009.6 |
| 20260506151234 | 59 | 350 | 4.3 | 8.7 | 0.00 | 0.04 | 0.01 | 64 | 1009.5 |
| 20260506150240 | 59 | 15 | 5.2 | 9.6 | 0.00 | 0.04 | 0.01 | 66 | 1009.5 |
| 20260506145234 | 59 | 350 | 4.3 | 9.6 | 0.00 | 0.04 | 0.01 | 68 | 1009.6 |
| 20260506144235 | 59 | 339 | 5.2 | 9.6 | 0.00 | 0.04 | 0.01 | 69 | 1009.4 |
| 20260506143246 | 59 | 323 | 6.1 | 10.4 | 0.00 | 0.04 | 0.01 | 67 | 1009.4 |
| 20260506142259 | 59 | 355 | 5.2 | 11.3 | 0.00 | 0.04 | 0.01 | 67 | 1009.5 |
| 20260506141241 | 59 | 290 | 6.1 | 12.2 | 0.00 | 0.04 | 0.01 | 66 | 1009.4 |
| 20260506140251 | 60 | 346 | 6.1 | 10.4 | 0.00 | 0.04 | 0.01 | 67 | 1009.5 |
| 20260506135231 | 61 | 342 | 5.2 | 10.4 | 0.00 | 0.04 | 0.01 | 65 | 1009.6 |
| 20260506134227 | 60 | 316 | 5.2 | 8.7 | 0.00 | 0.04 | 0.01 | 66 | 1009.4 |
| 20260506133228 | 60 | 321 | 7.0 | 10.4 | 0.00 | 0.04 | 0.01 | 64 | 1009.4 |
| 20260506132250 | 61 | 348 | 7.0 | 11.3 | 0.00 | 0.04 | 0.01 | 65 | 1009.3 |
| 20260506131233 | 59 | 338 | 5.2 | 10.4 | 0.00 | 0.04 | 0.01 | 69 | 1009.2 |
| 20260506130306 | 57 | 355 | 3.5 | 11.3 | 0.00 | 0.04 | 0.01 | 70 | 1009.2 |
| 20260506125241 | 57 | 328 | 4.3 | 10.4 | 0.00 | 0.04 | 0.01 | 72 | 1009.2 |
| 20260506124240 | 58 | 31 | 5.2 | 9.6 | 0.00 | 0.04 | 0.01 | 72 | 1009.1 |
| 20260506123249 | 59 | 5 | 5.2 | 11.3 | 0.00 | 0.04 | 0.01 | 72 | 1009.2 |
| 20260506122300 | 60 | 355 | 7.0 | 11.3 | 0.00 | 0.04 | 0.01 | 71 | 1009.1 |
| 20260506121254 | 61 | 343 | 3.5 | 9.6 | 0.00 | 0.04 | 0.01 | 72 | 1009.1 |
| 20260506120251 | 60 | 330 | 3.5 | 12.2 | 0.00 | 0.04 | 0.01 | 73 | 1009.1 |
| 20260506115234 | 58 | 29 | 4.3 | 7.8 | 0.00 | 0.04 | 0.01 | 76 | 1009.1 |
| 20260506114250 | 58 | 40 | 2.6 | 7.8 | 0.00 | 0.04 | 0.01 | 75 | 1009.1 |
| 20260506113238 | 59 | 40 | 2.6 | 8.7 | 0.00 | 0.04 | 0.01 | 78 | 1009.1 |
| 20260506112249 | 56 | 5 | 4.3 | 9.6 | 0.00 | 0.04 | 0.01 | 80 | 1009.1 |
| 20260506111300 | 56 | 22 | 3.5 | 6.1 | 0.00 | 0.04 | 0.01 | 82 | 1009.2 |
| 20260506110239 | 56 | 332 | 2.6 | 7.8 | 0.00 | 0.04 | 0.01 | 81 | 1009.2 |
| 20260506105239 | 57 | 355 | 3.5 | 8.7 | 0.00 | 0.04 | 0.01 | 80 | 1009.1 |
| 20260506104249 | 57 | 344 | 3.5 | 9.6 | 0.00 | 0.04 | 0.01 | 79 | 1009.2 |
| 20260506103229 | 58 | 31 | 3.5 | 7.8 | 0.00 | 0.04 | 0.01 | 82 | 1009.1 |
| 20260506102247 | 56 | 306 | 6.1 | 11.3 | 0.00 | 0.04 | 0.01 | 86 | 1009.1 |
| 20260506101227 | 55 | 338 | 4.3 | 7.8 | 0.00 | 0.04 | 0.01 | 89 | 1009.2 |
| 20260506100258 | 55 | 313 | 3.5 | 5.2 | 0.00 | 0.04 | 0.01 | 91 | 1009.2 |
| 20260506095230 | 54 | 355 | 5.2 | 7.8 | 0.00 | 0.04 | 0.01 | 93 | 1009.2 |
| 20260506094245 | 54 | 328 | 3.5 | 7.0 | 0.00 | 0.04 | 0.01 | 95 | 1009.1 |
| 20260506093247 | 53 | 244 | 2.6 | 7.0 | 0.00 | 0.04 | 0.01 | 95 | 1009.1 |
| 20260506092254 | 53 | 300 | 2.6 | 5.2 | 0.00 | 0.04 | 0.01 | 96 | 1009.1 |
| 20260506091246 | 52 | 329 | 3.5 | 7.0 | 0.00 | 0.04 | 0.01 | 96 | 1009.1 |
| 20260506090226 | 52 | 317 | 2.6 | 8.7 | 0.00 | 0.04 | 0.01 | 97 | 1009.0 |
| 20260506085226 | 52 | 328 | 3.5 | 7.0 | 0.00 | 0.04 | 0.01 | 97 | 1009.1 |
| 20260506084228 | 51 | 28 | 3.5 | 8.7 | 0.00 | 0.04 | 0.01 | 97 | 1009.0 |
| 20260506083235 | 51 | 346 | 4.3 | 7.8 | 0.00 | 0.04 | 0.01 | 97 | 1009.0 |
| 20260506082249 | 51 | 12 | 1.7 | 4.3 | 0.04 | 0.04 | 0.01 | 97 | 1009.0 |
| 20260506081232 | 51 | 313 | 2.6 | 7.0 | 0.04 | 0.04 | 0.01 | 97 | 1008.9 |
| 20260506080241 | 50 | 338 | 2.6 | 7.0 | 0.04 | 0.04 | 0.01 | 97 | 1008.9 |
| 20260506073241 | 50 | 305 | 2.6 | 7.8 | 0.04 | 0.04 | 0.01 | 96 | 1008.8 |
| 20260506072252 | 50 | 317 | 3.5 | 7.8 | 0.00 | 0.00 | 0.00 | 96 | 1008.8 |
| 20260506071305 | 49 | 9 | 2.6 | 7.8 | 0.00 | 0.00 | 0.00 | 96 | 1008.7 |
| 20260506070253 | 49 | 351 | 3.5 | 7.8 | 0.00 | 0.00 | 0.00 | 96 | 1008.8 |